GW4817 Weather Reports


time (UTC)temp
C
wind
direction
speed
KPH
gust
KPH
rain 1hr
cm
rain 24hr
cm
rain mn
cm
humidity
%
barometer
mb
20260505032351 32 236 1.6 1.6 0.00 0.00 0.00 59 1004.0
20260505031851 32 265 4.8 4.8 0.00 0.00 0.00 59 1004.0
20260505031351 32 244 1.6 3.2 0.00 0.00 0.00 58 1004.0
20260505030850 31 166 0.0 0.0 0.00 0.00 0.00 60 1004.0
20260505030350 31 258 4.8 4.8 0.00 0.00 0.00 59 1004.0
20260505025851 32 298 4.8 4.8 0.00 0.00 0.00 57 1004.0
20260505025351 32 280 1.6 1.6 0.00 0.00 0.00 57 1004.0
20260505024850 32 143 1.6 1.6 0.00 0.00 0.00 56 1004.0
20260505024350 32 160 0.0 0.0 0.00 0.00 0.00 58 1004.0
20260505023851 32 269 4.8 8.0 0.00 0.00 0.00 57 1004.0
20260505023350 32 246 4.8 4.8 0.00 0.00 0.00 56 1004.0
20260505022851 32 247 0.0 1.6 0.00 0.00 0.00 55 1004.0
20260505022351 32 218 0.0 0.0 0.00 0.00 0.00 55 1004.0
20260505021851 32 234 0.0 1.6 0.00 0.00 0.00 54 1004.0
20260505021350 32 135 0.0 1.6 0.00 0.00 0.00 56 1003.0
20260505020852 32 170 0.0 0.0 0.00 0.00 0.00 56 1003.0
20260505020350 32 146 0.0 1.6 0.00 0.00 0.00 55 1003.0
20260505015850 32 130 0.0 0.0 0.00 0.00 0.00 56 1004.0
20260505015350 31 142 0.0 0.0 0.00 0.00 0.00 58 1003.0
20260505014851 31 82 1.6 1.6 0.00 0.00 0.00 57 1003.0
20260505014351 31 242 1.6 1.6 0.00 0.00 0.00 58 1003.0
20260505013851 30 160 0.0 0.0 0.00 0.00 0.00 59 1003.0
20260505013351 30 175 0.0 0.0 0.00 0.00 0.00 60 1003.0
20260505012851 30 177 0.0 0.0 0.00 0.00 0.00 61 1003.0
20260505012350 29 189 0.0 0.0 0.00 0.00 0.00 62 1003.0
20260505011850 29 158 3.2 3.2 0.00 0.00 0.00 62 1003.0
20260505011350 29 182 1.6 1.6 0.00 0.00 0.00 63 1003.0
20260505010851 29 170 0.0 0.0 0.00 0.00 0.00 63 1003.0
20260505010350 29 179 0.0 0.0 0.00 0.00 0.00 63 1003.0
20260505005851 29 172 0.0 0.0 0.00 0.00 0.00 63 1003.0
20260505005351 29 172 0.0 0.0 0.00 0.00 0.00 63 1003.0
20260505004851 29 175 0.0 0.0 0.00 0.00 0.00 63 1003.0
20260505004350 28 173 1.6 1.6 0.00 0.00 0.00 64 1003.0
20260505003850 28 177 0.0 0.0 0.00 0.00 0.00 64 1002.0
20260505003351 28 178 1.6 1.6 0.00 0.00 0.00 64 1003.0
20260505002851 28 190 1.6 1.6 0.00 0.00 0.00 64 1002.0
20260505002351 28 184 0.0 0.0 0.00 0.00 0.00 64 1002.0
20260505001850 28 184 1.6 1.6 0.00 0.00 0.00 64 1003.0
20260505001350 28 190 0.0 0.0 0.00 0.00 0.00 64 1003.0
20260505000850 28 169 0.0 0.0 0.00 0.00 0.00 64 1003.0
20260505000351 28 193 1.6 1.6 0.00 0.00 0.00 65 1002.0
20260504235851 28 214 3.2 3.2 0.00 0.00 0.00 65 1003.0
20260504235350 28 153 0.0 0.0 0.00 0.00 0.00 65 1002.0
20260504234851 28 216 3.2 3.2 0.00 0.00 0.00 65 1003.0
20260504234351 28 215 0.0 1.6 0.00 0.00 0.00 66 1002.0
20260504233851 28 161 0.0 0.0 0.00 0.00 0.00 65 1002.0
20260504233351 28 174 1.6 1.6 0.00 0.00 0.00 66 1003.0
20260504232851 28 182 0.0 0.0 0.00 0.00 0.00 66 1002.0
20260504232351 28 284 4.8 4.8 0.00 0.00 0.00 66 1003.0
20260504231852 28 203 1.6 3.2 0.00 0.00 0.00 67 1003.0
20260504231351 28 216 3.2 4.8 0.00 0.00 0.00 67 1002.0
20260504230851 28 258 1.6 1.6 0.00 0.00 0.00 68 1002.0
20260504230351 28 213 1.6 3.2 0.00 0.00 0.00 68 1002.0
20260504225851 28 179 1.6 1.6 0.00 0.00 0.00 68 1002.0
20260504225353 28 217 3.2 4.8 0.00 0.00 0.00 68 1002.0
20260504224851 28 200 1.6 3.2 0.00 0.00 0.00 68 1002.0
20260504224350 28 252 3.2 3.2 0.00 0.00 0.00 68 1002.0
20260504223850 28 176 0.0 0.0 0.00 0.00 0.00 69 1002.0
20260504223351 28 162 0.0 0.0 0.00 0.00 0.00 69 1002.0
20260504222850 28 233 1.6 1.6 0.00 0.00 0.00 69 1002.0
20260504222350 28 210 4.8 4.8 0.00 0.00 0.00 69 1002.0
20260504221851 28 190 3.2 3.2 0.00 0.00 0.00 70 1002.0
20260504221352 28 205 1.6 1.6 0.00 0.00 0.00 70 1002.0
20260504220403 28 169 0.0 0.0 0.00 0.00 0.00 71 1002.0
20260504215850 28 167 0.0 1.6 0.00 0.00 0.00 71 1003.0
20260504215352 28 202 4.8 4.8 0.00 0.00 0.00 71 1003.0
20260504214853 28 314 1.6 3.2 0.00 0.00 0.00 72 1003.0
20260504214351 28 230 4.8 4.8 0.00 0.00 0.00 72 1003.0
20260504213851 28 227 0.0 1.6 0.00 0.00 0.00 72 1003.0
20260504213351 28 281 4.8 4.8 0.00 0.00 0.00 72 1003.0
20260504212851 28 226 1.6 3.2 0.00 0.00 0.00 73 1003.0
20260504212351 28 196 0.0 0.0 0.00 0.00 0.00 73 1003.0
20260504211852 28 203 8.0 11.3 0.00 0.00 0.00 72 1003.0
20260504211352 28 267 4.8 9.7 0.00 0.00 0.00 72 1003.0
20260504210851 28 245 1.6 3.2 0.00 0.00 0.00 72 1003.0
20260504210352 28 276 3.2 4.8 0.00 0.00 0.00 72 1003.0
20260504205851 28 284 4.8 8.0 0.00 0.00 0.00 72 1003.0
20260504205352 28 257 14.5 17.7 0.00 0.00 0.00 71 1003.0
20260504204851 28 297 4.8 8.0 0.00 0.00 0.00 71 1003.0
20260504204352 29 315 8.0 14.5 0.00 0.00 0.00 70 1003.0
20260504203852 29 154 0.0 0.0 0.00 0.00 0.00 70 1003.0
20260504203352 30 8 4.8 8.0 0.00 0.00 0.00 69 1003.0
20260504202853 30 260 0.0 1.6 0.00 0.00 0.00 69 1003.0
20260504202353 30 287 4.8 8.0 0.00 0.00 0.00 69 1003.0
20260504201851 30 323 4.8 8.0 0.00 0.00 0.00 70 1003.0
20260504201351 30 114 4.8 4.8 0.00 0.00 0.00 70 1003.0
20260504200851 30 267 1.6 3.2 0.00 0.00 0.00 70 1003.0
20260504200351 30 282 1.6 3.2 0.00 0.00 0.00 70 1002.0
20260504195854 30 182 3.2 3.2 0.00 0.00 0.00 70 1003.0
20260504195350 30 186 3.2 3.2 0.00 0.00 0.00 70 1003.0
20260504194850 30 245 6.4 8.0 0.00 0.00 0.00 69 1002.0
20260504194352 30 247 4.8 4.8 0.00 0.00 0.00 69 1003.0
20260504193850 30 185 0.0 1.6 0.00 0.00 0.00 69 1003.0
20260504193352 30 189 1.6 3.2 0.00 0.00 0.00 69 1003.0
20260504192851 30 157 4.8 8.0 0.00 0.00 0.00 69 1003.0
20260504192351 30 189 1.6 3.2 0.00 0.00 0.00 70 1003.0
20260504191854 30 175 6.4 8.0 0.00 0.00 0.00 70 1003.0
20260504191351 30 197 1.6 3.2 0.00 0.00 0.00 70 1003.0
20260504190850 30 198 1.6 3.2 0.00 0.00 0.00 70 1003.0
20260504190353 30 156 3.2 4.8 0.00 0.00 0.00 70 1003.0
20260504185851 30 215 4.8 4.8 0.00 0.00 0.00 69 1003.0
20260504185353 30 176 3.2 4.8 0.00 0.00 0.00 69 1003.0
20260504184850 30 166 3.2 4.8 0.00 0.00 0.00 69 1003.0
20260504184353 30 164 3.2 3.2 0.00 0.00 0.00 69 1003.0
20260504183851 30 188 1.6 3.2 0.00 0.00 0.00 69 1003.0
20260504183350 30 214 4.8 9.7 0.00 0.00 0.00 69 1003.0
20260504182851 30 209 6.4 8.0 0.00 0.00 0.00 69 1003.0
20260504182351 30 222 6.4 8.0 0.00 0.00 0.00 69 1003.0
20260504181852 30 242 3.2 3.2 0.00 0.00 0.00 69 1003.0
20260504181351 30 225 9.7 11.3 0.00 0.00 0.00 69 1003.0
20260504180853 30 209 6.4 9.7 0.00 0.00 0.00 69 1003.0
20260504180351 30 228 8.0 12.9 0.00 0.00 0.00 69 1003.0
20260504175851 30 214 8.0 14.5 0.00 0.00 0.00 69 1003.0
20260504175351 30 217 4.8 8.0 0.00 0.00 0.00 69 1003.0
20260504174851 30 256 8.0 11.3 0.00 0.00 0.00 70 1003.0
20260504174351 30 189 4.8 8.0 0.00 0.00 0.00 70 1003.0
20260504173851 30 285 3.2 4.8 0.00 0.00 0.00 71 1003.0
20260504173352 30 218 8.0 12.9 0.00 0.00 0.00 71 1003.0
20260504172852 30 188 8.0 9.7 0.00 0.00 0.00 71 1003.0
20260504172352 30 195 4.8 9.7 0.00 0.00 0.00 71 1003.0
20260504171851 30 196 8.0 12.9 0.00 0.00 0.00 71 1003.0
20260504171352 30 170 3.2 4.8 0.00 0.00 0.00 71 1003.0
20260504170853 30 219 11.3 12.9 0.00 0.00 0.00 70 1003.0
20260504170351 30 204 4.8 9.7 0.00 0.00 0.00 70 1003.0
20260504160351 30 174 11.3 12.9 0.00 0.00 0.00 78 1003.0
20260504150853 31 213 8.0 9.7 0.00 0.00 0.00 72 1003.0
20260504150351 31 214 8.0 9.7 0.00 0.00 0.00 71 1003.0
20260504140852 30 214 9.7 14.5 0.00 0.00 0.00 71 1001.0
20260504140353 30 145 12.9 12.9 0.00 0.00 0.00 71 1001.0
20260504130351 31 167 11.3 14.5 0.00 0.00 0.00 70 1001.0
20260504110351 34 153 6.4 9.7 0.00 0.00 0.00 60 999.0
20260504100352 36 122 1.6 4.8 0.00 0.00 0.00 51 999.0
20260504081851 37 239 6.4 8.0 0.00 0.00 0.00 46 1001.0
20260504081351 36 123 1.6 1.6 0.00 0.00 0.00 48 1001.0
20260504080851 37 299 6.4 8.0 0.00 0.00 0.00 47 1001.0
20260504080351 36 179 6.4 8.0 0.00 0.00 0.00 49 1001.0
20260504070350 35 230 6.4 8.0 0.00 0.00 0.00 53 1002.0
20260504050350 32 195 8.0 11.3 0.00 0.00 0.00 58 1004.0
20260504045851 32 138 14.5 20.9 0.00 0.00 0.00 58 1004.0
20260504045350 32 222 6.4 9.7 0.00 0.00 0.00 58 1004.0
20260504044851 32 165 4.8 4.8 0.00 0.00 0.00 59 1004.0
20260504044352 31 215 8.0 9.7 0.00 0.00 0.00 60 1004.0
20260504043850 31 134 6.4 9.7 0.00 0.00 0.00 60 1004.0
20260504043351 31 176 8.0 9.7 0.00 0.00 0.00 62 1004.0
20260504042850 31 234 9.7 11.3 0.00 0.00 0.00 64 1004.0
20260504042353 31 151 11.3 12.9 0.00 0.00 0.00 64 1004.0
20260504041851 31 204 8.0 14.5 0.00 0.00 0.00 64 1004.0
20260504041351 30 175 9.7 11.3 0.00 0.00 0.00 65 1005.0
20260504040851 30 209 11.3 12.9 0.00 0.00 0.00 65 1004.0
20260504040350 30 157 16.1 20.9 0.00 0.00 0.00 66 1004.0
20260504035850 30 176 8.0 11.3 0.00 0.00 0.00 67 1004.0
20260504035350 30 185 14.5 22.5 0.00 0.00 0.00 68 1004.0
20260504034851 30 159 12.9 16.1 0.00 0.00 0.00 69 1004.0
20260504034351 30 206 12.9 16.1 0.00 0.00 0.00 70 1004.0
20260504033850 30 192 9.7 12.9 0.00 0.00 0.00 70 1004.0
20260504033350 30 146 11.3 14.5 0.00 0.00 0.00 70 1005.0
20260504032851 30 155 8.0 11.3 0.00 0.00 0.00 70 1005.0